R72107 ETIK-EDDN

Flight info

Callsign R72107
Flight time 0h 15m
Altitude 3000
Route DCT NUB DCT
Aircraft EC45/L-SDE3FGHIRTWY/S

Departure

Time 2026-04-28 19:04
Airport Illesheim Army Heliport (ETIK)

Arrival

Time 2026-04-28 19:20
Airport Nuremberg Airport (EDDN)
Time Latitude Longitude Altitude Speed Heading
2026-04-28 18:52 49.47579 10.38799 1075 ft 0 kts 245°
2026-04-28 19:02 49.47567 10.38762 1076 ft 9 kts 243°
2026-04-28 19:02 49.47537 10.38700 1084 ft 9 kts 160°
2026-04-28 19:03 49.47467 10.38751 1084 ft 13 kts 151°
2026-04-28 19:03 49.47383 10.38782 1085 ft 6 kts 69°
2026-04-28 19:03 49.47379 10.38771 1080 ft 1 kts 64°
2026-04-28 19:03 49.47382 10.38771 1080 ft 0 kts 65°
2026-04-28 19:04 49.47432 10.38930 1205 ft 38 kts 64°
2026-04-28 19:04 49.47592 10.39480 1413 ft 69 kts 64°
2026-04-28 19:04 49.47784 10.40178 1703 ft 78 kts 67°
2026-04-28 19:04 49.47900 10.41003 1971 ft 83 kts 77°
2026-04-28 19:05 49.47998 10.41870 2328 ft 79 kts 77°
2026-04-28 19:05 49.48087 10.42675 2709 ft 76 kts 75°
2026-04-28 19:05 49.48181 10.43504 3006 ft 79 kts 77°
2026-04-28 19:05 49.48275 10.44340 3327 ft 79 kts 79°
2026-04-28 19:06 49.48369 10.45178 3619 ft 81 kts 82°
2026-04-28 19:06 49.48433 10.45745 3806 ft 82 kts 82°
2026-04-28 19:06 49.48563 10.46895 4203 ft 82 kts 82°
2026-04-28 19:06 49.48661 10.47758 4493 ft 82 kts 82°
2026-04-28 19:07 49.48762 10.48663 4648 ft 91 kts 81°
2026-04-28 19:07 49.48871 10.49609 4895 ft 89 kts 82°
2026-04-28 19:07 49.48983 10.50583 5033 ft 99 kts 82°
2026-04-28 19:07 49.49112 10.51634 5064 ft 97 kts 81°
2026-04-28 19:08 49.49243 10.52659 5041 ft 99 kts 83°
2026-04-28 19:08 49.49373 10.53680 5028 ft 98 kts 83°
2026-04-28 19:08 49.49504 10.54714 5034 ft 98 kts 82°
2026-04-28 19:08 49.49637 10.55736 5027 ft 98 kts 82°
2026-04-28 19:09 49.49756 10.56767 5029 ft 98 kts 84°
2026-04-28 19:09 49.49866 10.57902 4999 ft 116 kts 85°
2026-04-28 19:09 49.49984 10.59094 5036 ft 112 kts 84°
2026-04-28 19:09 49.50108 10.60339 5014 ft 118 kts 84°
2026-04-28 19:10 49.50190 10.61157 5008 ft 116 kts 84°
2026-04-28 19:10 49.50318 10.62371 5019 ft 115 kts 84°
2026-04-28 19:10 49.50437 10.63583 5024 ft 115 kts 84°
2026-04-28 19:10 49.50556 10.64801 5026 ft 116 kts 84°
2026-04-28 19:11 49.50675 10.66041 5027 ft 117 kts 84°
2026-04-28 19:11 49.50799 10.67282 5028 ft 117 kts 84°
2026-04-28 19:11 49.50930 10.68519 4888 ft 117 kts 83°
2026-04-28 19:11 49.51072 10.69734 4512 ft 113 kts 83°
2026-04-28 19:12 49.51213 10.70925 4217 ft 114 kts 82°
2026-04-28 19:12 49.51432 10.72102 4098 ft 115 kts 74°
2026-04-28 19:12 49.51710 10.73260 4044 ft 115 kts 73°
2026-04-28 19:12 49.51987 10.74417 4028 ft 115 kts 73°
2026-04-28 19:13 49.52264 10.75571 4023 ft 114 kts 73°
2026-04-28 19:13 49.52536 10.76716 4018 ft 114 kts 75°
2026-04-28 19:13 49.52660 10.77908 4016 ft 113 kts 88°
2026-04-28 19:13 49.52616 10.79107 4014 ft 113 kts 96°
2026-04-28 19:14 49.52490 10.80294 4011 ft 112 kts 99°
2026-04-28 19:14 49.52355 10.81479 4012 ft 113 kts 98°
2026-04-28 19:14 49.52228 10.82676 4011 ft 113 kts 97°
2026-04-28 19:14 49.52108 10.83877 3957 ft 114 kts 96°
2026-04-28 19:15 49.51999 10.85058 3818 ft 111 kts 96°
2026-04-28 19:15 49.51896 10.86220 3659 ft 109 kts 96°
2026-04-28 19:15 49.51787 10.87395 3506 ft 109 kts 97°
2026-04-28 19:15 49.51716 10.88157 3408 ft 109 kts 97°
2026-04-28 19:16 49.51567 10.89705 3210 ft 110 kts 97°
2026-04-28 19:16 49.51457 10.90869 3053 ft 110 kts 97°
2026-04-28 19:16 49.51347 10.92032 2901 ft 110 kts 96°
2026-04-28 19:16 49.51237 10.93196 2748 ft 110 kts 96°
2026-04-28 19:17 49.51127 10.94365 2592 ft 108 kts 95°
2026-04-28 19:17 49.51019 10.95511 2445 ft 109 kts 94°
2026-04-28 19:17 49.50919 10.96685 2291 ft 109 kts 91°
2026-04-28 19:17 49.50860 10.97803 2064 ft 107 kts 92°
2026-04-28 19:18 49.50717 10.98961 1852 ft 113 kts 95°
2026-04-28 19:18 49.50589 11.00178 1704 ft 117 kts 93°
2026-04-28 19:18 49.50496 11.01408 1502 ft 112 kts 92°
2026-04-28 19:18 49.50382 11.02516 1463 ft 100 kts 92°
2026-04-28 19:19 49.50284 11.03549 1371 ft 96 kts 94°
2026-04-28 19:19 49.50184 11.04564 1253 ft 93 kts 94°
2026-04-28 19:19 49.50104 11.05518 1146 ft 86 kts 107°
2026-04-28 19:19 49.50015 11.06308 1075 ft 63 kts 96°
2026-04-28 19:20 49.49966 11.06845 1047 ft 38 kts 108°
2026-04-28 19:20 49.49887 11.07020 1035 ft 16 kts 175°
2026-04-28 19:20 49.49807 11.07058 1033 ft 9 kts 160°
2026-04-28 19:20 49.49790 11.07067 1034 ft 1 kts 159°
2026-04-28 19:21 49.49795 11.07062 1044 ft 0 kts 159°
2026-04-28 19:21 49.49766 11.07079 1040 ft 9 kts 124°
2026-04-28 19:21 49.49744 11.07147 1036 ft 8 kts 102°
2026-04-28 19:21 49.49715 11.07233 1034 ft 10 kts 180°
2026-04-28 19:22 49.49673 11.07219 1034 ft 4 kts 216°
2026-04-28 19:22 49.49666 11.07196 1037 ft 4 kts 251°
2026-04-28 19:22 49.49652 11.07139 1033 ft 6 kts 187°
2026-04-28 19:22 49.49629 11.07135 1030 ft 1 kts 189°